Orbital Elements at Epoch 2459000.5 (2020-May-31.0) TDB
Reference: JPL 13 (heliocentric ecliptic J2000)
Element | Value | Uncertainty (1-sigma) | Units |
e | .1874720436082341 | 6.1488e-08 | |
a | 2.397461232049481 | 1.1833e-08 | au |
q | 1.94800427540565 | 1.4494e-07 | au |
i | 2.288218564897981 | 5.3133e-06 | deg |
node | 11.99703945582421 | 0.00010397 | deg |
peri | 33.87756423265847 | 0.00010447 | deg |
M | 180.4554651943145 | 1.1147e-05 | deg |
tp | 2459676.731669534887 (2022-Apr-07.23166953) | 4.5062e-05 | TDB |
period | 1355.89424259574 3.71 | 1.0038e-05 2.748e-08 | d yr |
n | .2655074331688376 | 1.9657e-09 | deg/d |
Q | 2.846918188693312 | 1.4052e-08 | au |
|
| | Orbit Determination Parameters
Additional Information
|